Regional Weather Roundup
Issued by NWS

Home | Current Version | Previous Version | Text Only | Print | Product List | Glossary On
Versions: 1 2 3 4 5 6 7 8 9 10 11 12 13 14 15 16 17 18 19 20 21 22 23 24 25 26 27 28 29 30 31 32 33 34 35 36 37 38 39 40 41 42 43 44 45 46 47 48 49 50
000
ASUS44 KOUN 301910
RWROK

WEATHER ROUNDUP FOR OKLAHOMA
NATIONAL WEATHER SERVICE NORMAN OK
200 PM CDT THU JUL 30 2015

NOTE: "FAIR" INDICATES FEW OR NO CLOUDS BELOW 12,000 FEET WITH NO
      SIGNIFICANT WEATHER AND/OR OBSTRUCTIONS TO VISIBILITY.

OKZ001>007-009>012-014-015-017-302000-
NORTHWEST OKLAHOMA AND THE PANHANDLE

CITY           SKY/WX    TMP DP  RH WIND       PRES   REMARKS
GAGE           CLOUDY    77  69  76 E9        30.24F
GUYMON         CLOUDY    77  68  73 E8        30.27F
ENID/WOODRING  PTSUNNY   77  70  78 N9        30.19
$$

OKZ016-021>023-033>039-044-045-302000-
SOUTHWEST OKLAHOMA

CITY           SKY/WX    TMP DP  RH WIND       PRES   REMARKS
LAWTON/REGL    MOSUNNY   99  59  26 MISG      30.10F HX  99
LAWTON/FT SILL MOSUNNY   97  66  36 E8        30.09F HX 100
FREDERICK      MOSUNNY   97  65  34 MISG      30.09S HX  99
CLINTON        PTSUNNY   83  70  64 NE18      30.24F
HOBART         MOSUNNY   89  71  55 NE21G30   30.19S HX  95
ALTUS AFB      SUNNY     95  68  41 N22G28    30.14F HX  99
$$

OKZ018>020-024>031-302000-
CENTRAL OKLAHOMA

CITY           SKY/WX    TMP DP  RH WIND       PRES   REMARKS
OKLAHOMA CITY  PTSUNNY   87  73  62 NE18G26   30.16F HX  94
OKC/WILEY POST MOSUNNY   87  71  58 N16G23    30.17F HX  93
OKC/TINKER AFB MOSUNNY   88  73  62 N16       30.15F HX  95
STILLWATER     CLOUDY    84  69  60 NE13      30.18F
GUTHRIE        MOSUNNY   87  71  58 NE12G17   30.18F HX  93
$$

OKZ008-013-054>072-302000-
NORTHEAST OKLAHOMA

CITY           SKY/WX    TMP DP  RH WIND       PRES   REMARKS
TULSA          CLOUDY    89  75  63 N18       30.14S HX  99
TULSA/JONES    PTSUNNY   87  74  64 MISG      30.14S HX  95
PONCA CITY     CLOUDY    78  71  79 NE7       30.20F
BARTLESVILLE   CLOUDY    82  73  74 VRB7G20   30.20F
MUSKOGEE       MOSUNNY   92  76  59 E3        30.12F HX 104
$$

OKZ032-040>043-046>053-073>077-302000-
SOUTH CENTRAL/SOUTHEAST OKLAHOMA

CITY           SKY/WX    TMP DP  RH WIND       PRES   REMARKS
ARDMORE/DWNTWN SUNNY     97  61  30 CALM      30.09F HX  97
MCALESTER      PTSUNNY   95  73  48 NE7       30.10F HX 104
$$



USA.gov is the U.S. government's official web portal to all federal, state and local government web resources and services.